Flag for Norway Weather past 2 weeks in Longyearbyen, Svalbard, Norway

Now
41 °F

Broken clouds.


Feels Like: 36 °F
Forecast: 40 / 43 °F
Wind: 7 mph from West

Location: Svalbard Lufthavn

Current Time: Jun 30, 2015 at 6:28:10 AM

Latest Report: Jun 30, 2015 at 5:50 AM


Visibility: N/A

Pressure: 30.04 "Hg

Humidity: 66%

Dew point: 30 °F

Location of LongyearbyenLocation

Historic Weather in Longyearbyen — Graph

°F

Longyearbyen temperature yesterday

Maximum temperature yesterday: 41 °F (at 8:50 PM)
Minimum temperature yesterday: 36 °F (at 2:50 AM)
Average temperature yesterday: 38 °F

Past Weeks' High & Low Weather Summary

 TemperatureHumidityPressure
High48 °F (Jun 15, 4:20 PM)93% (Jun 16, 6:50 AM)30.18 "Hg (Jun 16, 6:50 AM)
Low36 °F (Jun 29, 2:50 AM)56% (Jun 29, 8:50 AM)29.65 "Hg (Jun 17, 10:50 PM)
Average42 °F72%29.95 "Hg
* Reported Jun 15 4:50 AM — Jun 30 4:50 AM, Longyearbyen, Weather by CustomWeather, © 2015

Note: Actual official high and low records may vary slightly from our data, if they occured in-between our weather recording intervals... More about our weather records

Advertising

Longyearbyen weather history for previous 24 hours

 ConditionsComfort  
Time TempWeatherWind HumidityBarometerVisibility
4:50 AM
Tue, Jun 30
41 °FPartly sunny.9 mph66%30.04 "HgN/A
3:50 AM41 °FPartly sunny.9 mph61%30.04 "HgN/A
2:50 AM41 °FPartly sunny.9 mph57%30.04 "HgN/A
1:50 AM41 °FBroken clouds.9 mph61%30.04 "HgN/A
12:50 AM41 °FBroken clouds.10 mph61%30.04 "HgN/A
11:50 PM
Mon, Jun 29
39 °FBroken clouds.9 mph70%30.07 "HgN/A
10:50 PM41 °FBroken clouds.10 mph61%30.04 "HgN/A
9:50 PM41 °FBroken clouds.9 mph61%30.04 "HgN/A
8:50 PM41 °FPartly sunny.9 mph61%30.04 "HgN/A
7:50 PM39 °FPartly sunny.9 mph65%30.07 "HgN/A
6:50 PM39 °FPartly sunny.7 mph65%30.07 "HgN/A
6:20 PM39 °FPartly sunny.6 mph65%30.07 "HgN/A
4:50 PM39 °FPartly sunny.5 mph70%30.07 "HgN/A
3:56 PM39 °FPartly sunny.5 mph65%30.07 "HgN/A
3:20 PM39 °FScattered showers. Partly sunny.5 mph61%30.07 "HgN/A
3:08 PM39 °FPartly sunny.5 mph65%30.07 "HgN/A
1:50 PM39 °FPartly sunny.5 mph61%30.07 "HgN/A
12:50 PM39 °FPartly sunny.5 mph61%30.07 "HgN/A
11:50 AM39 °FPartly sunny.5 mph56%30.07 "HgN/A
10:50 AM37 °FPartly sunny.3 mph60%30.07 "HgN/A
9:50 AM37 °FPartly sunny.7 mph60%30.07 "HgN/A
8:50 AM37 °FPartly sunny.7 mph56%30.07 "HgN/A
7:50 AM37 °FPartly sunny.14 mph60%30.04 "HgN/A
6:50 AM37 °FPartly sunny.17 mph60%30.04 "HgN/A
Weather by CustomWeather, © 2015

See weather overviewHow to use our weather pages